TimeMST,TemperatureF,Dew PointF,Humidity,Sea Level PressureIn,VisibilityMPH,Wind Direction,Wind SpeedMPH,Gust SpeedMPH,PrecipitationIn,Events,Conditions,WindDirDegrees,DateUTC
12:51 AM,28.0,26.1,92,29.49,-9999.0,Calm,Calm,-,N/A,,Unknown,0,2012-11-09 07:51:00
1:51 AM,27.0,25.0,92,29.49,-9999.0,Calm,Calm,-,N/A,,Unknown,0,2012-11-09 08:51:00
2:51 AM,27.0,24.1,89,29.49,-9999.0,Calm,Calm,-,N/A,,Unknown,0,2012-11-09 09:51:00
3:51 AM,28.0,25.0,88,29.52,-9999.0,Calm,Calm,-,N/A,,Unknown,0,2012-11-09 10:51:00
5:51 AM,27.0,24.1,89,29.54,-9999.0,Calm,Calm,-,N/A,,Unknown,0,2012-11-09 12:51:00
6:51 AM,26.1,24.1,92,29.55,-9999.0,Calm,Calm,-,N/A,,Unknown,0,2012-11-09 13:51:00
7:51 AM,24.1,21.9,91,29.57,-9999.0,Calm,Calm,-,N/A,,Unknown,0,2012-11-09 14:51:00
8:51 AM,26.1,24.1,92,29.55,-9999.0,NNW,3.5,-,N/A,,Unknown,340,2012-11-09 15:51:00
9:51 AM,26.1,23.0,88,29.56,-9999.0,NNW,3.5,-,N/A,,Unknown,330,2012-11-09 16:51:00
10:51 AM,27.0,24.1,89,29.56,-9999.0,Calm,Calm,-,N/A,,Unknown,0,2012-11-09 17:51:00
11:51 AM,27.0,24.1,89,29.56,-9999.0,Variable,4.6,-,N/A,,Unknown,0,2012-11-09 18:51:00
12:51 PM,26.1,21.9,84,29.56,-9999.0,NNW,6.9,-,N/A,,Unknown,330,2012-11-09 19:51:00
1:51 PM,27.0,21.9,81,29.55,-9999.0,North,6.9,-,0.02,,Unknown,360,2012-11-09 20:51:00
2:51 PM,28.0,21.0,75,29.54,-9999.0,North,4.6,-,N/A,,Unknown,360,2012-11-09 21:51:00
3:51 PM,26.1,19.9,78,29.56,-9999.0,North,9.2,-,N/A,,Unknown,10,2012-11-09 22:51:00
4:51 PM,23.0,18.0,81,29.58,-9999.0,Calm,Calm,-,N/A,,Unknown,0,2012-11-09 23:51:00
5:51 PM,19.9,16.0,85,29.61,-9999.0,Calm,Calm,-,N/A,,Unknown,0,2012-11-10 00:51:00
6:51 PM,18.0,14.0,84,29.64,-9999.0,WNW,3.5,-,N/A,,Unknown,300,2012-11-10 01:51:00
7:51 PM,19.9,16.0,85,29.64,-9999.0,Calm,Calm,-,N/A,,Unknown,0,2012-11-10 02:51:00
8:51 PM,19.0,16.0,88,29.64,-9999.0,Calm,Calm,-,N/A,,Unknown,0,2012-11-10 03:51:00
9:51 PM,15.1,12.0,88,29.65,-9999.0,Calm,Calm,-,N/A,,Unknown,0,2012-11-10 04:51:00
10:51 PM,17.1,14.0,88,29.65,-9999.0,Calm,Calm,-,N/A,,Unknown,0,2012-11-10 05:51:00